Jogging Pour Tous
Remonter

26ème Edition des Boucles Du Djale

Samedi 19 mars 2011

Course A - 1,8 km

Course B - 3,2 km

Course C - 10 km

Course A - 1,8 km
             
Position Dossard Nom Prénom Temps Temps au km Moyenne horaire
1 253 DE HEY BENJAMIN 06:53 03:49 15.69
2 2627 GEUDENS NATHAN 06:56 03:51 15.58
3 27 BIATOUR BASILE 06:58 03:52 15.50
4 252 MONON ARNAUD 07:04 03:55 15.28
5 266 HOCK COLINE 07:07 03:57 15.18
6 2347 DECHAMPS EMILIE 07:11 03:59 15.03
7 251 MOORS MATHIAS 07:17 04:02 14.83
8 117 JENNEN THOMAS 07:18 04:03 14.79
9 2625 BRUWIER ROMAIN 07:20 04:04 14.73
10 118 JENNEN VICTORIA 07:24 04:06 14.59
11 2343 BODSON FLORENCE 07:26 04:07 14.53
12 2646 VERVIER NATHAN 07:54 04:23 13.67
13 2342 KOOPER ZOE 07:54 04:23 13.67
14 2344 DANIELS ROSE 08:09 04:31 13.25
15 2617 HERMESSE GUILLAUME 08:12 04:33 13.17
16 250 HANIOT FLORIAN 08:13 04:33 13.14
17 2616 LAMBERT MARIE 08:20 04:37 12.96
18 2345 DEWALLEF NOA 08:22 04:38 12.91
19 2623 LAMBERT ROMAIN 08:24 04:40 12.86
20 2638 ESSABRI TANGUY 08:25 04:40 12.83
21 2402 GILON HUGO 08:30 04:43 12.71
22 187 SIEMES QUENTIN 08:31 04:43 12.68
23 2641 JULIN LEA 08:33 04:45 12.63
24 2401 BATTAIS SARA 08:34 04:45 12.61
25 2403 DUMONT SEBASTIEN 08:36 04:46 12.56
26 148 MARINO DAMIEN 08:37 04:47 12.53
27 2613 JEUKENS LOLA 08:39 04:48 12.49
28 260 DELTOUR JENNYFER 08:39 04:48 12.49
29 2619 HERMESSE JEAN 08:51 04:55 12.20
30 2620 HERMESSE GILLES 08:52 04:55 12.18
31 2615 VENTURELLI CORALIE 09:01 05:00 11.98
32 2636 BLAISE ADRIEN 09:06 05:03 11.87
33 2341 FIC JULIEN 09:15 05:08 11.68
34 2630 DAUBIOUL ROMAIN 09:20 05:11 11.57
35 2644 VERVIER NATASHA 09:23 05:12 11.51
36 2351 BALBOURG AYMERIC 09:27 05:15 11.43
37 2628 WIJNEN THOMAS 09:29 05:16 11.39
38 2349 DECHAMPS ALICIA 09:58 05:32 10.84
39 2348 DECHAMPS MARIE 09:59 05:32 10.82
40 2648 SOOLS EMILIE 10:03 05:35 10.75
41 2612 GRITTEN BAPTISTE 10:17 05:42 10.50
42 2611 PAUL ESTELLE 10:21 05:45 10.43
43 2649 RASQUIN TOM 10:50 06:01 9.97
44 2632 MODICA NICOLAS 11:45 06:31 9.19
45 2642 CARLIER LOIC 11:59 06:39 9.01
46 2647 SOOLS AMANDINE 12:41 07:02 8.52
47 2354 VERCRUYSSE LUCAS 12:51 07:08 8.40
 
Course B - 3,2 km
 
Position Dossard Nom Prénom Temps Temps au km Moyenne horaire
1 2631 DAUBIOUL CHRISTOPHE 11:30 03:35 16.70
2 217 DELVENNE THIBAULT 11:35 03:37 16.58
3 2614 LEUKENS JEREMY 11:42 03:39 16.41
4 359 ZULIANI ALEXANDRE 11:39 03:38 16.48
5 2360 SPITS CLEMENT 11:48 03:41 16.27
6 146 MAKA TANGUY 12:20 03:51 15.57
7 281 LEMMENS ROMAIN 12:21 03:51 15.55
8 2355 JEHAES FLORENCE 12:22 03:51 15.53
9 268 HOCK ALLISON 12:26 03:53 15.44
10 2358 JOCKIN FRANCOIS 12:32 03:55 15.32
11 2659 DIBONO KYLIAN 12:54 04:01 14.88
12 2362 OTTEN DENIS 12:55 04:02 14.86
13 39 CHARLIER ELINE 13:03 04:04 14.71
14 72 DEMONTY NICOLAS 13:30 04:13 14.22
15 155 NIZET KARIM 13:41 04:16 14.03
16 2640 CLOES TANGUY 14:17 04:27 13.44
17 76 DERKENNE MEGHAN 14:20 04:28 13.40
18 2629 LOGNOUL EMILIE 14:20 04:28 13.40
19 71 DEMONTY LOIC 14:26 04:30 13.30
20 2405 DELVAUX ROBIN 15:02 04:41 12.77
21 2654 ORTEGA ELOIONE 15:03 04:42 12.76
22 98 MOHON OPHELIE 15:39 04:53 12.27
23 126 LEGROS AXEL 15:41 04:54 12.24
24 2660 DI BONO SEVANNAH 16:01 05:00 11.99
25 2350 NEUFCOUR CELINE 16:01 05:00 11.99
26 2353 MAES MARINE 16:03 05:00 11.96
27 2635 HENDRICKS XAVIER 16:08 05:02 11.90
28 2618 HERMESSE JEROME 16:19 05:05 11.77
29 120 KAES VICKY 16:29 05:09 11.65
30 2410 BENBALIT ADAM 16:53 05:16 11.37
31 2406 DELVAUX MARTIJN 17:38 05:30 10.89
32 259 LEGROS JUSTINE 19:42 06:09 9.75
33 2409 GIAMBRA ROMAN 19:45 06:10 9.72
34 2634 LEGROS NOEMIE 19:55 06:13 9.64
35 2411 TRAN KIM 20:13 06:19 9.50
36 101 RACOUX DANIELE 22:32 07:02 8.52
37 102 SALMON CHRISTEL 23:38 07:23 8.12
38 2655 PARIS JOHAN 27:42 08:39 6.93
39 2656 CABEZAS XAVIER 27:42 08:39 6.93
40 2626 WIJNEN EMELINE 28:17 08:50 6.79
Course C - 10 km
             
Position Dossard Nom Prénom Temps Temps au km Moyenne horaire
1 2398 MOUKRIME TARIK 33:37 03:21 17.85
2 2695 HEMELAERS LAURENT 33:43 03:22 17.80
3 191 STULENS BENY 33:48 03:22 17.75
4 2712 PAQUES BENOIT 33:56 03:23 17.68
5 2359 OVADLI KAMILLE 34:08 03:24 17.58
6 2377 DETRIXHE MICHEL 35:16 03:31 17.01
7 2662 CHAKOUATH HAMMADI 35:17 03:31 17.01
8 288 VAESEN BENOIT 35:23 03:32 16.96
9 2382 FRANSSEN JORGEN 35:28 03:32 16.92
10 20 BEAUFORT PIERRE 35:48 03:34 16.76
11 2674 MICHEL LUC 36:01 03:36 16.66
12 2414 VANDENBLINK ERIC 36:14 03:37 16.56
13 2365 DETHIER JULIEN 36:20 03:38 16.51
14 97 GRUSLIN MICHEL 36:26 03:38 16.47
15 2361 DEFOURNY DOMINIQUE 36:32 03:39 16.42
16 135 LOGNOUL FABIEN 36:37 03:39 16.39
17 2373 JAOS LOU 36:47 03:40 16.31
18 2713 DUMONT NICOLAS 36:55 03:41 16.25
19 224 DOUPAGNE CLAUDE 37:07 03:42 16.17
20 2687 BOSCH JOHN 37:15 03:43 16.11
21 2721 PATUREAU ERIC 37:24 03:44 16.04
22 237 BOLLEN PASCAL 37:26 03:44 16.03
23 2622 DEWALLEF PASCAL 37:28 03:44 16.01
24 2681 MANCA ANTONIO 37:29 03:44 16.01
25 301 LUXEN BENOIT 37:31 03:45 15.99
26 294 RASIER PATRICK 37:34 03:45 15.97
27 365 TILKIN JULIEN 37:36 03:45 15.96
28 231 ESSABRI YOANN 37:39 03:45 15.94
29 2661 CHABABE LARBI 37:39 03:45 15.94
30 136 LOPEZ NAVA DIDIER 37:42 03:46 15.92
31 363 MESTREZ ERIC 37:48 03:46 15.87
32 2352 BERWAERS SEBASTIEN 37:53 03:47 15.84
33 212 ZIELINSKI ?MICHEL 37:59 03:47 15.80
34 2363 BOSMANS ERIC 38:02 03:48 15.78
35 286 LARDINOIS KEVIN 37:54 03:47 15.83
36 2682 VRANCKEN MARC 38:19 03:49 15.66
37 201 VEGA VEGA ADRIAN 38:22 03:50 15.64
38 202 VENTURELLI MAXIME 38:22 03:50 15.64
39 302 SELERIN PASCAL 38:28 03:50 15.60
40 2765 TRIZZULLA GIACOMO 38:36 03:51 15.54
41 225 LENAERS CH DOMINI 38:38 03:51 15.53
42 14 BAILLY LUC 38:41 03:52 15.51
43 2725 MELEN DIMITRI 38:45 03:52 15.48
44 347 WOOLF ALAIN 38:50 03:53 15.45
45 147 GUILLAUME CEDRIC 38:53 03:53 15.43
46 22 BERTHUME BERNARD 38:55 03:53 15.42
47 2688 VAN VUM RENE 38:57 03:53 15.40
48 188 SLAVICA YVAN 39:23 03:56 15.23
49 2706 BERGENHUIZEN EDDY 39:27 03:56 15.21
50 2395 OGER SYLVAIN 39:35 03:57 15.16
51 2624 BRUWIER J PAUL 39:39 03:57 15.13
52 121 KEIL ALAIN 39:47 03:58 15.08
53 2723 SPITS ALAIN 39:59 03:59 15.01
54 2437 DUCULOT ANTOINT 40:00 04:00 15.00
55 48 COURARD DIDIER 40:02 04:00 14.99
56 183 SANGIOVANNI JEAN CHARLES 40:06 04:00 14.96
57 293 LEHANCE PASCAL 40:13 04:01 14.92
58 174 REGNIER DIDIER 40:16 04:01 14.90
59 186 SERVAIS DAVID 40:22 04:02 14.86
60 45 COLLARD SERGE 40:35 04:03 14.78
61 2378 MERTZ CHRISTOPHER 40:36 04:03 14.78
62 195 VAN KERKHOVEN MARTIN 40:40 04:04 14.75
63 2658 NICOLAS FRANCIS 40:47 04:04 14.71
64 138 LORQUET JEAN MARC 40:53 04:05 14.68
65 2738 PIRSON STEPHANE 40:54 04:05 14.67
66 104 HALDERS SERVAIS 40:57 04:05 14.65
67 83 EVRARD MARC 41:05 04:06 14.60
68 91 GARIN YVES 41:06 04:06 14.60
69 2670 GUCKEL IRNIN 41:07 04:06 14.59
70 2451 HENQUET DAMIEN 41:10 04:07 14.57
71 75 CLOSE PIERRE 41:11 04:07 14.57
72 2418 VANDEVENNE CHRISTIAN 41:13 04:07 14.56
73 361 TROIANO MICHAEL 41:14 04:07 14.55
74 2357 DERKENNE OLIVIER 41:14 04:07 14.55
75 2427 LENNERIS ERIC 41:15 04:07 14.55
76 2773 GHEURY PHILIPPE 41:17 04:07 14.53
77 2667 POHL DIDIER 41:23 04:08 14.50
78 2683 VILLERS YANNICK 41:33 04:09 14.44
79 360 BOURDOUX J LUC 41:34 04:09 14.43
80 78 DETREZ MARTINE 41:34 04:09 14.43
81 2704 COLIN FRANCOIS 41:37 04:09 14.42
82 107 HENRY RICHARD 42:12 04:13 14.22
83 149 MARTIN ERIC 41:39 04:09 14.41
84 2397 CHABABE EFRAIM 41:43 04:10 14.38
85 238 GADEN RAMON 41:45 04:10 14.37
86 119 JEUKENS MICHEL 41:46 04:10 14.37
87 296 PASSOT GIULIO 41:47 04:10 14.36
88 80 DOSSERAY ROGER 42:02 04:12 14.27
89 69 JULIN PASCAL 42:04 04:12 14.26
90 180 ROUFOSSE JOEFREY 42:06 04:12 14.25
91 313 HERZET CLAUDE 42:09 04:12 14.23
92 2356 ARNDDY MARC 42:10 04:13 14.23
93 2741 DE GRAEVE CEDRIC 42:25 04:14 14.15
94 25 BERTONI JOEL 42:27 04:14 14.13
95 2697 SCHRODER RAPHAEL 42:32 04:15 14.11
96 7 PIERRE FREDERIC 42:34 04:15 14.10
97 190 STICCA NICOLA 42:37 04:15 14.08
98 88 FREDERICK DOMINIQUE 42:39 04:15 14.07
99 77 DETRAUX ROLAND 42:47 04:16 14.02
100 99 MELARD JEAN-EMILE 42:49 04:16 14.01
101 2385 VAESEN PHILIPPE 42:56 04:17 13.98
102 2412 CREMERS GILLES 43:01 04:18 13.95
103 6 ANDRE CARLOS 43:01 04:18 13.95
104 2346 DANIELS J MARC 43:03 04:18 13.94
105 133 LO SARDO PIETRO 43:06 04:18 13.92
106 68 DELVAUX PAUL 43:12 04:19 13.89
107 2729 BIELEN MICHEL 43:17 04:19 13.86
108 2728 BOVY STEPHANE 43:28 04:20 13.80
109 322 CLOSE LUX MARY 43:29 04:20 13.80
110 33 BOURSIE JOSEPH 43:32 04:21 13.78
111 2450 DUPONT PASCAL 43:49 04:22 13.69
112 2724 MASSIN ANTHONY 43:54 04:23 13.67
113 2386 AWOUTERS CEDIRC 44:01 04:24 13.63
114 350 VOETS RAPHAEL 44:02 04:24 13.63
115 362 PANARIELLO MAURICE 44:04 04:24 13.62
116 2651 NYSSEN ALAIN 44:05 04:24 13.61
117 323 COLLET CHRISTOPHE 44:11 04:25 13.58
118 175 RENARD VIVIANE 44:15 04:25 13.56
119 2761 LUCASSEN PHILIPPE 44:18 04:25 13.54
120 2769 DEDRY GARY 44:28 04:26 13.49
121 2407 XHONNEUX RENAUD 44:35 04:27 13.46
122 165 PESSER ALINE 44:36 04:27 13.45
123 2650 BROUN J PIERRE 44:36 04:27 13.45
124 13 PANARIELLO FABIAN 44:37 04:27 13.45
125 310 JOWAY ERIC 44:41 04:28 13.43
126 2708 DAVREUX BENOIT 44:42 04:28 13.42
127 2727 SPITS ALEXANDRE 44:46 04:28 13.40
128 289 WAGELMANS CLARISSE 44:54 04:29 13.36
129 194 VAN DER HEYDEN ERIC 44:56 04:29 13.35
130 2698 WERGIFOSSE JACKY 44:56 04:29 13.35
131 12 BADENBERG BERNARD 44:56 04:29 13.35
132 2435 ULRICI OLIVIER 44:59 04:29 13.34
133 2763 VERBOVEN DAMIEN 45:02 04:30 13.32
134 2375 FAFCHAMPS JUDORE 45:02 04:30 13.32
135 2665 SIMON BRUNO 45:03 04:30 13.32
136 169 PIACENZA MARTHA 45:07 04:30 13.30
137 2731 SCHIERLING MARVIN 45:07 04:30 13.30
138 2702 FREMALLE BENOIT 45:09 04:30 13.29
139 2691 SENTE CYNTHIA 45:11 04:31 13.28
140 2694 LEHAEN P OLIVIER 45:26 04:32 13.21
141 356 DELHAYE PHILIPPE 45:28 04:32 13.20
142 2633 LECLERCQ PHILIPPE 45:32 04:33 13.18
143 189 STEVENS JEAN 45:39 04:33 13.14
144 2711 RODA JOSEPH 45:44 04:34 13.12
145 108 HERTOGEN WILLY 45:46 04:34 13.11
146 2690 MARX BENOIT 45:47 04:34 13.11
147 2692 SIMONS JOSIANE 45:57 04:35 13.06
148 109 HILDERSON LUC 46:02 04:36 13.03
149 103 HADJIDILITRIOU STELIO 46:10 04:37 13.00
150 35 BUCKINX ETIENNE 46:15 04:37 12.97
151 160 PEPIN JEAN LOUIS 46:24 04:38 12.93
152 82 DRIESSENS CHRISTINE 46:30 04:39 12.90
153 43 CLERFAYS HUBERT 46:35 04:39 12.88
154 303 LESECQUE STEPHANE 46:37 04:39 12.87
155 116 JENNEN PATRICK 46:41 04:40 12.85
156 145 MAKA CECILE 46:49 04:40 12.82
157 125 LARMINIER CLAUDE 47:08 04:42 12.73
158 151 MENNICKEN ROGER 47:09 04:42 12.73
159 2705 GUCKEL ARNAUD 47:10 04:43 12.72
160 176 RIGO MICHEL 47:11 04:43 12.72
161 2696 GAILLARD BENOIT 47:33 04:45 12.62
162 236 NOKIN CHRISTIAN 47:39 04:45 12.59
163 234 HEYNS XAVIER 47:40 04:46 12.59
164 2703 GUCKEL BRUNO 47:47 04:46 12.56
165 106 HENRARD HENRI 47:55 04:47 12.52
166 2439 PEREZ MIGUEL 47:56 04:47 12.52
167 265 EGGEN RENE 48:06 04:48 12.47
168 2722 CIRIOLA LUCA 48:09 04:48 12.46
169 2719 SIMS JONATHAN 48:12 04:49 12.45
170 241 SAIVE JEAN MARIE 48:13 04:49 12.44
171 2384 WARNIER BRUNO 48:13 04:49 12.44
172 209 WILLEM BERNARD 48:18 04:49 12.42
173 140 LORQUET SYLVIE 48:20 04:50 12.41
174 2693 RAMIREZ MIGUEL 48:25 04:50 12.39
175 2380 MATTARD CHRISTOPHE 48:29 04:50 12.38
176 285 BAIVIER JEAN 48:33 04:51 12.36
177 2421 BESEM AUDREY 48:34 04:51 12.35
178 2663 WOSKA NICOLAS 48:34 04:51 12.35
179 255 WATRIN BRUNO 48:40 04:52 12.33
180 2370 GILET MAURICE 48:45 04:52 12.31
181 179 ROLLIN JEAN LOUIS 48:45 04:52 12.31
182 2679 DETHIER ALAIN 48:47 04:52 12.30
183 2399 ERNST ANDRE 48:53 04:53 12.27
184 42 CIOPPA FRANCO 48:54 04:53 12.27
185 330 DECRIO JOSE 48:55 04:53 12.27
186 316 ZANELLA VITO 48:58 04:53 12.25
187 2685 BOURGUIGNON PIERRE 49:02 04:54 12.24
188 2684 KREUSCH VINCENT 49:03 04:54 12.23
189 2422 VANETTRO CHRISTIAN 49:04 04:54 12.23
190 2417 GENONA MATTEO 49:07 04:54 12.22
191 172 PUGENGER BORIS 49:14 04:55 12.19
192 61 DEBOYARD MARJORY 49:22 04:56 12.15
193 220 DOME EUGENE 49:26 04:56 12.14
194 2666 DEMONCEAU ERIC 49:33 04:57 12.11
195 345 NYSSEN MONIQUE 49:35 04:57 12.10
196 185 SCHOONBROODT LEON 49:38 04:57 12.09
197 2676 GIGOT J MARC 49:42 04:58 12.07
198 2372 CRANSVELD CAROLINE 49:42 04:58 12.07
199 318 DUCULOT PHILIPPE 49:45 04:58 12.06
200 144 MAKA ALEXANDRE 49:48 04:58 12.05
201 2426 JONLET CHRISTIAN 49:51 04:59 12.04
202 292 D HOEY CHRISTIAN 49:53 04:59 12.03
203 354 WILKIN J MARC 49:53 04:59 12.03
204 247 HEINEN HENRI 49:56 04:59 12.02
205 2394 BOLSEE ANNE 49:58 04:59 12.01
206 153 MILAN DANIELE 49:59 04:59 12.00
207 2677 KHROWIS MANUEL 49:59 04:59 12.00
208 2775 REMY SEBASTIEN 50:04 05:00 11.98
209 2388 HENDRIKS WILLY 50:11 05:01 11.96
210 178 ROBERTI HENRI 50:12 05:01 11.95
211 23 BERTONI JENNY 50:21 05:02 11.92
212 2376 NIZET ALBERT 50:28 05:02 11.89
213 2652 DEMONTY J MARIE 50:29 05:02 11.89
214 2645 DIMORO BEATRICE 50:30 05:03 11.88
215 38 CARACINI MARCELLO 50:31 05:03 11.88
216 2383 NOIRFALISE CECILE 50:35 05:03 11.86
217 2367 CARPACE RENE 50:35 05:03 11.86
218 2393 KELLENS MICHEL 50:36 05:03 11.86
219 2404 DELVAUX KRIS 50:36 05:03 11.86
220 295 AGELOF THANAS 50:36 05:03 11.86
221 111 HURLET BERNARD 50:39 05:03 11.85
222 2366 WOUTERS CATHERINE 50:54 05:05 11.79
223 278 WARLARD ANDRE 50:55 05:05 11.78
224 70 VERHELLE VERONIQUE 51:02 05:06 11.76
225 261 CULOT J YVES 51:02 05:06 11.76
226 315 BERTIER EMMANUEL 51:03 05:06 11.75
227 32 BOUCHE MARC 51:07 05:06 11.74
228 2735 DE WINTER LAURENCE 51:16 05:07 11.70
229 34 BROUWIER JOSEPH 51:16 05:07 11.70
230 2621 BONHEMME LAURENCE 51:18 05:07 11.70
231 2446 LAVIGNE MICHEL 51:22 05:08 11.68
232 2733 MAGNEE DOMINIQUE 51:24 05:08 11.67
233 2374 FERNANDEZ ANGEL 51:31 05:09 11.65
234 2379 PETERS ANNE 51:41 05:10 11.61
235 65 DELHEZ MARCEL 51:42 05:10 11.61
236 2772 ELBASHIRI MOHAMED 51:48 05:10 11.58
237 2449 DEMEY J LOUIS 51:56 05:11 11.55
238 2700 MUSU ANTONIO 52:05 05:12 11.52
239 2768 SLEYPENN VINCENT 52:06 05:12 11.52
240 2734 DEGEMBE FRANCOISE 52:09 05:12 11.51
241 338 RUTH ADELIN 52:19 05:13 11.47
242 243 BATTISTINI LUCIANO 52:23 05:14 11.45
243 2736 COLLINGE ANTOINETTE 52:34 05:15 11.41
244 2444 MIGNOLET PIERRE 52:35 05:15 11.41
245 2389 SCHOSSE NANEY 52:44 05:16 11.38
246 113 JADIN LUCIEN 52:47 05:16 11.37
247 2699 REENAERS FREDERIC 52:52 05:17 11.35
248 309 PONCIN GERALDINE 52:59 05:17 11.32
249 2424 MEYER BENOIT 53:01 05:18 11.32
250 114 JAMAIGNE LAURENT 53:03 05:18 11.31
251 154 NICASSIO SAM 53:05 05:18 11.30
252 2413 HUBERT OLIVIER 53:05 05:18 11.30
253 96 GRONDAL SOPHIE 53:07 05:18 11.30
254 319 KINET ANABELLE 53:16 05:19 11.26
255 2396 PROFITA PIERRE 53:20 05:20 11.25
256 332 HAGGESTEIN ALAIN 53:25 05:20 11.23
257 2408 BARTOCCI DANILO 53:28 05:20 11.22
258 2381 DARDENNE P YVES 53:39 05:21 11.18
259 2387 SCUVEE CHRISTOPHE 53:39 05:21 11.18
260 2441 RUZZICONI MARCO 53:40 05:22 11.18
261 2390 MEYLEMANS STEPHANIE 53:40 05:22 11.18
262 2714 DEJACE ALAIN 53:41 05:22 11.18
263 2436 URICI MICHEL 53:42 05:22 11.17
264 2364 CURRERI VIRGINIE 53:44 05:22 11.17
265 2671 HALKIN J MICHEL 53:46 05:22 11.16
266 2726 MELEN THIBAULT 53:47 05:22 11.16
267 280 TOVONITS NICO 53:57 05:23 11.12
268 2732 SCHIERLING J MARIE 54:07 05:24 11.09
269 2643 FORTANETE DANIEL 54:08 05:24 11.08
270 368 ULRICI ROLAND 54:14 05:25 11.06
271 2430 TOUSSAITN RACHELLE 54:22 05:26 11.04
272 182 SAGGIORATO LUIGI 54:23 05:26 11.03
273 168 PIACENZA ALEX 54:23 05:26 11.03
274 343 DEHAIRS ANDRE 54:24 05:26 11.03
275 2668 POHL ESTELLE 54:24 05:26 11.03
276 5 MATHOT RICHARD 54:30 05:27 11.01
277 2764 DEGEE J LUC 54:32 05:27 11.00
278 2744 BERNARD ERIC 54:42 05:28 10.97
279 2653 VICKEVORST LUC 54:45 05:28 10.96
280 2716 HENRITON YVES 54:45 05:28 10.96
281 2438 AMICONE J PIERRE 54:50 05:29 10.94
282 161 PERPETE ANNE MARIE 54:50 05:29 10.94
283 2715 MARTINELLI LUC 54:51 05:29 10.94
284 2767 BAUMON NICOLAS 55:02 05:30 10.90
285 2673 GENCO SALVATORE 55:10 05:31 10.88
286 2423 FRENAY PIERRE 55:11 05:31 10.87
287 2689 MECZKOWSKI STAN 55:20 05:32 10.84
288 2678 COLSON MICHELE 55:26 05:32 10.82
289 2762 CENTI ERIC 55:33 05:33 10.80
290 2720 COOX THIERRY 55:34 05:33 10.80
291 2770 BOUNNAANAA SAMIR 55:35 05:33 10.79
292 100 MELARD MICHEL 56:16 05:37 10.66
293 2371 MARECHAL MARIE 55:45 05:34 10.76
294 2639 PESSER RENE 55:47 05:34 10.76
295 2415 DELAIRESSE GILBERT 55:54 05:35 10.73
296 317 JASPERS JOSEPH 55:56 05:35 10.73
297 2737 LEGROS ANNE 55:56 05:35 10.73
298 364 DEROECK PATRICK 55:57 05:35 10.72
299 2669 SARTOR PATRICIA 56:04 05:36 10.70
300 2710 CARDILLO VINCENT 56:04 05:36 10.70
301 2448 NAMMOLI MARIELLA 56:12 05:37 10.68
302 369 BOVY PHILIPPE 56:20 05:38 10.65
303 222 BOLOGNE JACQUES 56:23 05:38 10.64
304 308 SPELGATTI RAFAEL 56:29 05:38 10.62
305 2686 CUIPERS ANDRE 56:32 05:39 10.61
306 2428 ORBAN CLAUDETTE 56:34 05:39 10.61
307 2431 STOKIS JOEL 56:45 05:40 10.57
308 2740 BALTHASAR MARC 56:53 05:41 10.55
309 2672 ROUSSEAU TONY 57:07 05:42 10.50
310 2709 GILSON SEBASTIEN 57:13 05:43 10.49
311 2445 BALLEUX J MANUEL 57:49 05:46 10.38
312 2718 LORENT EMILE 57:51 05:47 10.37
313 2675 RADEMAKER MARTINE 57:57 05:47 10.35
314 358 LARMINIER A MARIE 58:10 05:49 10.32
315 159 PATRIARCA CATIA 58:16 05:49 10.30
316 2742 MARCHETTA STELLE 58:18 05:49 10.29
317 351 MANCINI MICHEL 58:37 05:51 10.24
318 249 CARRERAS MIGUEL 58:57 05:53 10.18
319 127 LEGROS FRANCIS 59:04 05:54 10.16
320 74 DERICHS PATRICIA 59:03 05:54 10.16
321 346 FRYNS GILBERT 59:24 05:56 10.10
322 2771 MANJI SINAN 59:27 05:56 10.09
323 2657 GERON MARIE 59:35 05:57 10.07
324 19 BEAUFORT PATRICK 59:35 05:57 10.07
325 2443 SPECA ELIO 59:40 05:58 10.06
326 2766 HOUGARDY ERIC 59:41 05:58 10.05
327 203 RECKER MARCEL 59:45 05:58 10.04
328 344 FERNANDEZ REINA FRANCISCO 59:47 05:58 10.04
329 142 MAGUIN PATRICIA 59:54 05:59 10.02
330 158 PAROTTE SIMONE 59:57 05:59 10.01
331 2701 JODOGNE M JEANNE 59:59 05:59 10.00
332 2440 BROQUET J LUC 01:00:24 06:02 9.93
333 2739 LAGOUNE FREDERIC 01:00:28 06:02 9.92
334 2730 JAMBERS NICOLAS 01:00:29 06:02 9.92
335 64 DELCOMMINETTE MICHAEL 01:00:37 06:03 9.90
336 2707 DUCHESNE J CLAUDE 01:00:40 06:04 9.89
337 193 THISSEN PHILIPPE 01:00:42 06:04 9.88
338 2392 BLANCHARD JACQUELINE 01:01:00 06:06 9.84
339 2416 SANFILIPPO JOSEPHINE 01:01:06 06:06 9.82
340 366 HERBEN GUY 01:01:34 06:09 9.75
341 305 ARGENTO CALOGERA 01:01:51 06:11 9.70
342 2429 CLIGNET JOSEPH 01:02:14 06:13 9.64
343 199 VANHERCK JEAN 01:02:14 06:13 9.64
344 2434 MEMROULLE FABIENNE 01:02:34 06:15 9.59
345 2432 CORRARDI M THERESE 01:03:12 06:19 9.49
346 2420 NAMOTTE MURIEL 01:02:43 06:16 9.57
347 2419 DEL VALLE CARMEN 01:02:43 06:16 9.57
348 2447 RUTILO ROSETA 01:03:22 06:20 9.47
349 62 DEFAYS POL 01:04:12 06:25 9.35
350 335 DURWAL J CLAUDE 01:04:40 06:28 9.28
351 139 LORQUET SARAH 01:04:48 06:28 9.26
352 2717 LORENT PHILIPPE 01:04:49 06:28 9.26
353 2369 PIETRAPERTOSA VANESSA 01:04:51 06:29 9.25
354 2368 PIAZZA SABRINA 01:04:51 06:29 9.25
355 157 ORBAN MICHELE 01:06:00 06:36 9.09
356 2391 COLLETTE PIERRE 01:07:01 06:42 8.95
357 2442 GRIFASI FABRIZIO 01:07:02 06:42 8.95
358 2433 ALDERSON REGINE 01:07:09 06:42 8.94
359 129 LEMPEREUR PATRICE 01:07:49 06:46 8.85
360 2425 CASTIGLIONE VALERIO 01:08:35 06:51 8.75
361 2777 KUTA MELANIE 01:08:59 06:53 8.70
362 2776 BINDELLE SIMON 01:09:01 06:54 8.69
363 2743 BODEUS GODEFROID 01:10:33 07:03 8.50
364 2680 COLLET GEORGES 01:11:12 07:07 8.43
365 370 VALESIO A FRANCOISE 01:12:20 07:14 8.29
366 367 MOTTARD GUY 01:13:45 07:22 8.14
367 15 BALTUS CHRISTIANE 01:16:35 07:39 7.83
368 2774 BARAKA NOURD 01:16:38 07:39 7.83